Flag for Canada Weather past 2 weeks in Miramichi, New Brunswick, Canada

Now
36 °F

Clear.


Feels Like: 27 °F
Forecast: 24 / 34 °F
Wind: 13 mph from West

Location: Bathurst Airport

Current Time: Dec 26, 2014 at 8:26:35 PM

Latest Report: Dec 26, 2014 at 8:00 PM


Visibility: 15 mi

Pressure: 29.77 "Hg

Humidity: 52%

Dew point: 19 °F

Location of MiramichiLocation

Historic Weather in Miramichi — Graph

°F

Miramichi temperature yesterday

Maximum temperature yesterday: 45 °F (at 2:00 PM)
Minimum temperature yesterday: 32 °F (at 12:00 AM)
Average temperature yesterday: 38 °F

Past Weeks' High & Low Weather Summary

 TemperatureHumidityPressure
High45 °F (Dec 25, 2:00 PM)100% (Dec 11, 7:00 PM)30.49 "Hg (Dec 11, 7:00 PM)
Low16 °F (Dec 16, 2:00 AM)42% (Dec 26, 4:00 PM)29.14 "Hg (Dec 25, 2:00 PM)
Average29 °F88%29.96 "Hg
* Reported Dec 11 7:00 PM — Dec 26 7:00 PM, Miramichi, Weather by CustomWeather, © 2014

Note: Actual official high and low records may vary slightly from our data, if they occured in-between our weather recording intervals... More about our weather records

Advertising

Miramichi weather history for previous 24 hours

 ConditionsComfort  
Time TempWeatherWind HumidityBarometerVisibility
7:00 PM
Dec 26
36 °FClear.15 mph52%29.75 "Hg15 mi
6:00 PM37 °FClear.18 mph45%29.72 "Hg15 mi
5:00 PM37 °FPassing clouds.15 mph45%29.69 "Hg15 mi
4:00 PM39 °FPassing clouds.22 mph42%29.66 "Hg15 mi
3:00 PM39 °FPassing clouds.20 mph45%29.63 "Hg15 mi
2:00 PM39 °FScattered clouds.24 mph45%29.62 "Hg15 mi
1:00 PM37 °FPartly sunny.18 mph52%29.61 "Hg15 mi
12:00 PM39 °FPartly sunny.24 mph45%29.61 "Hg15 mi
11:00 AM37 °FPartly sunny.21 mph52%29.61 "Hg15 mi
10:00 AM37 °FPartly sunny.17 mph52%29.58 "Hg15 mi
9:00 AM37 °FPartly sunny.15 mph52%29.56 "Hg15 mi
8:52 AM37 °FPartly sunny.18 mph52%29.56 "Hg15 mi
8:00 AM37 °FSnow flurries. Passing clouds.15 mph48%29.54 "Hg15 mi
7:00 AM37 °FSnow flurries. Passing clouds.22 mph56%29.52 "Hg15 mi
6:00 AM37 °FSnow flurries. Passing clouds.13 mph56%29.50 "Hg15 mi
5:00 AM39 °FSnow flurries. Passing clouds.20 mph52%29.47 "Hg15 mi
4:00 AM39 °FPassing clouds.17 mph56%29.45 "Hg15 mi
3:00 AM39 °FPassing clouds.20 mph56%29.42 "Hg15 mi
2:00 AM39 °FPassing clouds.26 mph56%29.38 "Hg15 mi
1:00 AM41 °FPassing clouds.15 mph53%29.36 "Hg15 mi
12:00 AM41 °FPassing clouds.22 mph57%29.33 "Hg15 mi
11:00 PM
Dec 25
41 °FPassing clouds.23 mph61%29.31 "Hg15 mi
10:00 PM41 °FPassing clouds.17 mph61%29.28 "Hg15 mi
9:00 PM41 °FPassing clouds.18 mph66%29.26 "Hg15 mi
8:00 PM41 °FPassing clouds.16 mph66%29.26 "Hg15 mi
Weather by CustomWeather, © 2014

See weather overviewHow to use our weather pages